Simultaneous Nadir Overpasses (SNOs) Predictions

Prediction of SNOs between LANDSAT-8 and METOP-B Satellite Orbit:

Table of predicted SNOs for the next 14.0 days since TLE Epoch: 12/30/2017
Index Date (LANDSAT-8) Time (LANDSAT-8) Lat,Lon (LANDSAT-8) SZA (LANDSAT-8 ) Date (METOP-B) Time (METOP-B) Lat,Lon (METOP-B) SZA (METOP-B ) Distance(km) Time Diff (sec)
1 12/30/2017 05:27:58 81.13, 137.81 106.13 12/30/2017 05:27:16 81.12, 137.65 106.10 2.74 42
2 12/30/2017 06:17:24 -81.14, -54.28 73.84 12/30/2017 06:17:55 -81.15, -54.20 73.81 1.57 31
3 01/02/2018 01:02:12 81.13,-155.65 105.90 01/02/2018 01:01:38 81.13,-155.75 105.87 1.80 34
4 01/02/2018 01:51:38 -81.15, 12.28 74.07 01/02/2018 01:52:17 -81.16, 12.44 74.04 2.73 39
5 01/04/2018 20:36:26 81.14, -89.14 105.60 01/04/2018 20:36:00 81.13, -89.16 105.58 0.57 26
6 01/04/2018 21:25:52 -81.16, 78.82 74.36 01/04/2018 21:26:40 -81.15, 78.69 74.36 2.38 48
7 01/07/2018 16:10:40 81.14, -22.66 105.24 01/07/2018 16:10:22 81.14, -22.58 105.24 1.29 18
8 01/07/2018 17:00:06 -81.16, 145.32 74.72 01/07/2018 17:01:02 -81.16, 145.30 74.71 0.65 56
9 01/10/2018 11:44:53 81.14, 43.79 104.82 01/10/2018 11:44:43 81.14, 43.98 104.84 3.32 10




NCC Satellite Simultaneous Nadir Overpasses (SNOs) Prediction Service
